[[{"header":{"parameterUnit":"m.s-1","parameterCategory":1,"la1":30.2991,"la2":30.254,"lo1":-89.0895,"lo2":-89.0444,"dy":0.0017,"dx":0.0017,"nx":28,"ny":28,"refTime":"2024-04-08T03:00:00:Z","depth":0,"parameterNumber":2,"parameterNumberName":"U-component_of_WINDS"},"data":[0,0,0,0,0,0,0,0,0,0,0,0,0,0,0,0,0,0,0,0,0,0,0,0,0,0,0,0,0,0,0,0,0,0,0,0,0,0,0,0,0,0,0,0,0,0,0,0,0,0,0,0,0,0,0,0,0,0,-2.4801,-2.4803,0,-2.4988,-2.499,-2.4993,-2.5048,-2.5047,-2.5046,-2.5045,-2.5236,-2.5242,-2.5248,0,0,0,0,0,0,0,0,0,0,0,0,0,-2.4491,-2.4496,-2.4801,-2.4803,-2.4806,-2.4988,-2.4991,-2.4993,-2.5048,-2.5047,-2.5046,-2.5045,-2.5234,-2.5242,-2.5249,0,0,0,0,0,0,0,0,0,0,0,0,0,-2.4646,-2.4498,-2.48,-2.4855,-2.4862,-2.4987,-2.4991,-2.4994,-2.5048,-2.5047,-2.5046,-2.5044,-2.5232,-2.5241,-2.525,-2.5334,0,0,-2.5277,-2.5281,0,0,0,0,0,0,0,0,-2.4638,-2.4658,-2.4845,-2.4851,-2.4859,-2.4993,-2.4952,-2.5108,-2.5049,-2.4978,-2.5045,-2.5043,-2.5157,-2.5172,-2.521,-2.5343,-2.5352,-2.5278,-2.5284,-2.5287,-2.529,0,0,0,0,0,0,0,-2.4627,-2.465,-2.4875,-2.4847,-2.4856,-2.487,-2.4891,-2.4981,-2.5073,-2.4984,-2.4988,-2.501,-2.516,-2.5201,-2.5215,-2.5354,-2.5278,-2.5286,-2.5291,-2.5295,-2.5567,-2.5569,0,0,0,0,0,0,-2.4607,-2.4641,-2.4869,-2.4881,-2.4743,-2.4877,-2.49,-2.4952,-2.5072,-2.5089,-2.5011,-2.5011,-2.5187,-2.5204,-2.5222,-2.5329,-2.5287,-2.5296,-2.5301,-2.5565,-2.5568,-2.557,0,0,0,0,0,0,-2.46,-2.4627,-2.4862,-2.4762,-2.4793,-2.4884,-2.4942,-2.4956,-2.4997,-2.5093,-2.5109,-2.5036,-2.5186,-2.5209,-2.5306,-2.5337,-2.53,-2.5308,-2.5563,-2.5566,-2.5569,-2.5544,0,0,0,0,0,0,-2.4591,-2.4624,-2.4657,-2.4762,-2.4798,-2.4943,-2.4944,-2.4961,-2.5013,-2.5016,-2.512,-2.5136,-2.5187,-2.5293,-2.5315,-2.5348,-2.5315,-2.5561,-2.5564,-2.5568,-2.5543,-2.5546,-2.5549,0,0,0,0,0,-2.4579,-2.4642,-2.4658,-2.4685,-2.4841,-2.4944,-2.4965,-2.5022,-2.5015,-2.5049,-2.511,-2.5133,-2.533,-2.5302,-2.5328,-2.5364,-2.5559,-2.5563,-2.5567,-2.5541,-2.5545,-2.5548,0,0,0,0,0,0,-2.4538,-2.4657,-2.4676,-2.4775,-2.4849,-2.4953,-2.4998,-2.5024,-2.5101,-2.5101,-2.5168,-2.5191,-2.5283,-2.5334,-2.5301,-2.5453,-2.5445,-2.5455,-2.5417,-2.5421,-2.5424,-2.5409,-2.5322,0,0,0,0,0,-2.454,-2.4614,-2.4714,-2.4792,-2.4828,-2.4906,-2.4953,-2.4991,-2.507,-2.5102,-2.517,-2.5246,-2.5326,-2.5376,-2.5454,-2.5551,-2.5574,-2.5588,-2.5591,-2.5593,-2.56,-2.5655,-2.5663,-2.5583,-2.5583,-2.5583,0,0,-2.4545,-2.462,-2.4662,-2.4785,-2.4847,-2.4922,-2.4932,-2.5011,-2.5067,-2.5114,-2.521,-2.5262,-2.5352,-2.5449,-2.5495,-2.5494,-2.5628,-2.5598,-2.5599,-2.5606,-2.566,-2.5668,-2.5674,-2.5586,-2.5585,-2.5585,0,0,-2.4594,-2.4657,-2.4729,-2.4791,-2.4884,-2.4936,-2.4953,-2.5055,-2.5091,-2.5189,-2.5225,-2.5293,-2.5428,-2.549,-2.5539,-2.5612,-2.5636,-2.5635,-2.565,-2.5703,-2.5709,-2.5715,-2.5741,-2.5749,-2.5642,-2.5642,-2.5642,0,-2.4588,-2.4703,-2.4762,-2.484,-2.4893,-2.4939,-2.5012,-2.5069,-2.5183,-2.5219,-2.5216,-2.5386,-2.545,-2.5562,-2.558,-2.5618,-2.564,-2.5623,-2.5704,-2.571,-2.5716,-2.5742,-2.5751,-2.5642,-2.5642,-2.5642,-2.5642,0,-2.4692,-2.477,-2.4817,-2.4926,-2.4985,-2.5059,-2.5131,-2.5183,-2.5215,-2.5267,-2.5366,-2.5444,-2.5539,-2.5568,-2.5601,-2.5685,-2.5682,-2.569,-2.5684,-2.5722,-2.5747,-2.5757,-2.5641,-2.5641,-2.5641,-2.5641,0,0,-2.4719,-2.486,-2.4877,-2.4927,-2.5034,-2.5096,-2.5172,-2.5265,-2.5309,-2.5386,-2.5452,-2.5565,-2.5574,-2.563,-2.567,-2.5716,-2.5769,-2.572,-2.5723,-2.5726,-2.5867,-2.5859,-2.587,-2.5785,-2.5787,-2.5789,-2.5859,0,-2.478,-2.4919,-2.4976,-2.5088,-2.5162,-2.5207,-2.5274,-2.5347,-2.5398,-2.5467,-2.5524,-2.5603,-2.5609,-2.5643,-2.5691,-2.5752,-2.5798,-2.5748,-2.5847,-2.585,-2.5823,-2.5883,-2.5875,-2.5938,-2.5869,-2.5871,-2.5872,0,-2.4871,-2.4949,-2.5069,-2.5167,-2.52,-2.5259,-2.5349,-2.5415,-2.5499,-2.5533,-2.5595,-2.5633,-2.5715,-2.5703,-2.5818,-2.5782,-2.5827,-2.5863,-2.5867,-2.5878,-2.5863,-2.5895,-2.5959,-2.5968,-2.5888,-2.5887,-2.5886,0,-2.4878,-2.5014,-2.5103,-2.5145,-2.5261,-2.5302,-2.5353,-2.5435,-2.5487,-2.5566,-2.56,-2.5687,-2.5735,-2.5801,-2.5861,-2.5847,-2.597,-2.5963,-2.6,-2.5998,-2.6023,-2.6021,-2.6095,-2.6052,-2.6052,-2.6052,-2.6051,0,-2.4941,-2.5013,-2.5108,-2.5163,-2.5245,-2.5309,-2.5388,-2.5441,-2.5514,-2.558,-2.5625,-2.5686,-2.5761,-2.5832,-2.588,-2.5967,-2.5988,-2.6018,-2.6029,-2.6014,-2.601,-2.6043,-2.6041,-2.6054,-2.6054,-2.6053,-2.6053,0,-2.4963,-2.503,-2.513,-2.5233,-2.526,-2.5316,-2.5404,-2.5459,-2.5512,-2.5595,-2.5618,-2.5701,-2.5787,-2.5854,-2.5965,-2.5997,-2.6089,-2.6102,-2.6061,-2.6067,-2.61,-2.6096,-2.6198,-2.6215,-2.616,-2.6161,-2.6161,0,-2.4999,-2.5056,-2.5164,-2.5211,-2.5262,-2.5338,-2.5391,-2.5457,-2.5511,-2.561,-2.5653,-2.5742,-2.5817,-2.5951,-2.6022,-2.6107,-2.6123,-2.6152,-2.6136,-2.6118,-2.6123,-2.6119,-2.6125,-2.6154,-2.6154,-2.6155,-2.6155,0,-2.5056,-2.5086,-2.5162,-2.5249,-2.5312,-2.5384,-2.5457,-2.5493,-2.5572,-2.563,-2.5718,-2.5776,-2.589,-2.5978,-2.607,-2.6122,-2.6152,-2.616,-2.6173,-2.6157,-2.6131,-2.6146,-2.6067,-2.6157,-2.6157,-2.6157,-2.6156,-2.6156,-2.5087,-2.5139,-2.5223,-2.5306,-2.5367,-2.5435,-2.5491,-2.5552,-2.5626,-2.5724,-2.5758,-2.5849,-2.5931,-2.6059,-2.6112,-2.6184,-2.6185,-2.6204,-2.6209,-2.6212,-2.6211,-2.6119,-2.6201,-2.6201,-2.6201,-2.6201,-2.6201,0,-2.5146,-2.5202,-2.5278,-2.5378,-2.5443,-2.5465,-2.5547,-2.56,-2.5679,-2.5754,-2.5826,-2.5928,-2.6013,-2.609,-2.6179,-2.6221,-2.6237,-2.6243,-2.624,-2.6252,-2.6205,-2.6184,-2.6228,-2.6228,-2.6228,-2.6228,-2.6228,-2.6228,-2.5184,-2.5273,-2.5313,-2.5434,-2.549,-2.5579,-2.5624,-2.5686,-2.5746,-2.5857,-2.5928,-2.5978,-2.6053,-2.6148,-2.6227,-2.6248,-2.6278,-2.628,-2.6304,-2.6259,-2.6255,-2.6251,-2.6233,-2.6286,-2.6286,-2.6345,-2.6346,-2.6346]},{"header":{"parameterUnit":"m.s-1","parameterCategory":1,"la1":30.2991,"la2":30.254,"lo1":-89.0895,"lo2":-89.0444,"dy":0.0017,"dx":0.0017,"nx":28,"ny":28,"refTime":"2024-04-08T03:00:00:Z","depth":0,"parameterNumber":3,"parameterNumberName":"V-component_of_WINDS"},"data":[0,0,0,0,0,0,0,0,0,0,0,0,0,0,0,0,0,0,0,0,0,0,0,0,0,0,0,0,0,0,0,0,0,0,0,0,0,0,0,0,0,0,0,0,0,0,0,0,0,0,0,0,0,0,0,0,0,0,3.5653,3.5653,0,3.5657,3.5657,3.5657,3.5632,3.5632,3.5631,3.563,3.5637,3.5637,3.5638,0,0,0,0,0,0,0,0,0,0,0,0,0,3.5629,3.563,3.5653,3.5653,3.5653,3.5657,3.5657,3.5657,3.5632,3.5632,3.5631,3.563,3.5636,3.5637,3.5638,0,0,0,0,0,0,0,0,0,0,0,0,0,3.5637,3.563,3.5653,3.5641,3.564,3.5657,3.5657,3.5657,3.5633,3.5632,3.563,3.563,3.5636,3.5637,3.5638,3.5667,0,0,3.5642,3.5643,0,0,0,0,0,0,0,0,3.5637,3.5638,3.5643,3.5642,3.5641,3.5643,3.5651,3.566,3.5633,3.5636,3.563,3.5629,3.564,3.5641,3.5644,3.5667,3.5668,3.5642,3.5643,3.5644,3.5644,0,0,0,0,0,0,0,3.5636,3.5638,3.5655,3.5643,3.5642,3.5637,3.5637,3.5652,3.5644,3.5635,3.5633,3.5634,3.5639,3.5643,3.5644,3.5668,3.5642,3.5643,3.5644,3.5645,3.5718,3.5719,0,0,0,0,0,0,3.5637,3.5637,3.5654,3.5655,3.5636,3.5639,3.5639,3.5643,3.5643,3.5642,3.5635,3.5633,3.5641,3.5642,3.5644,3.5678,3.5644,3.5645,3.5645,3.5717,3.5718,3.5719,0,0,0,0,0,0,3.5636,3.5638,3.5654,3.5646,3.5647,3.564,3.5646,3.5644,3.5647,3.5643,3.5642,3.564,3.564,3.5642,3.5662,3.5678,3.5645,3.5646,3.5715,3.5717,3.5719,3.5747,0,0,0,0,0,0,3.5636,3.5638,3.5648,3.5646,3.5648,3.5671,3.5647,3.5645,3.5649,3.5647,3.5647,3.5646,3.5639,3.566,3.5663,3.5679,3.5647,3.5714,3.5716,3.5718,3.5744,3.5749,3.5754,0,0,0,0,0,3.5635,3.5656,3.5648,3.5651,3.5659,3.5672,3.5673,3.5664,3.5651,3.5661,3.5659,3.5646,3.5676,3.5662,3.5665,3.5682,3.5713,3.5715,3.5718,3.5742,3.5748,3.5753,0,0,0,0,0,0,3.566,3.5655,3.5647,3.5667,3.567,3.5667,3.568,3.567,3.5677,3.5674,3.5664,3.5664,3.5686,3.5686,3.5671,3.5711,3.5692,3.5696,3.571,3.5716,3.572,3.5719,3.5648,0,0,0,0,0,3.5668,3.5677,3.5673,3.5692,3.5693,3.5687,3.5692,3.5685,3.5687,3.5689,3.5688,3.5692,3.5702,3.5709,3.5718,3.5745,3.5746,3.5758,3.5763,3.5767,3.577,3.5786,3.5792,3.5728,3.5728,3.5728,0,0,3.5684,3.5683,3.5689,3.5697,3.5698,3.5709,3.5688,3.57,3.5709,3.5691,3.5709,3.5709,3.5713,3.5737,3.5747,3.5738,3.5788,3.577,3.5773,3.5774,3.5789,3.5795,3.5801,3.573,3.573,3.5729,0,0,3.5719,3.5719,3.5735,3.5737,3.5739,3.5735,3.5739,3.5739,3.5738,3.5756,3.5743,3.5755,3.5773,3.5776,3.5781,3.5821,3.5811,3.5825,3.5849,3.5864,3.5869,3.5874,3.5889,3.5894,3.5828,3.5828,3.5828,0,3.5739,3.5755,3.5745,3.5758,3.5763,3.5747,3.5765,3.5768,3.5773,3.5778,3.5767,3.579,3.5792,3.5817,3.5827,3.5831,3.5837,3.5824,3.5869,3.5874,3.5878,3.5892,3.5898,3.583,3.583,3.583,3.5829,0,3.578,3.5791,3.5804,3.581,3.5816,3.5831,3.5825,3.5833,3.5827,3.5825,3.5845,3.5847,3.5857,3.5863,3.5856,3.5888,3.5882,3.5871,3.5851,3.5886,3.5899,3.5904,3.5832,3.5832,3.5831,3.5831,0,0,3.5828,3.583,3.5835,3.5838,3.5841,3.585,3.5867,3.5876,3.5883,3.5889,3.5903,3.592,3.591,3.5915,3.591,3.5924,3.5957,3.5911,3.5911,3.5919,3.5994,3.6002,3.6008,3.5951,3.5952,3.5953,3.5993,0,3.5863,3.5889,3.5882,3.5909,3.592,3.5907,3.5921,3.5926,3.5925,3.5936,3.5936,3.5948,3.5933,3.5937,3.595,3.595,3.5972,3.5947,3.5965,3.5966,3.5963,3.6015,3.6023,3.6061,3.5998,3.5999,3.6,0,3.5906,3.5913,3.5941,3.5944,3.5948,3.5961,3.597,3.598,3.5986,3.5985,3.5992,3.5985,3.6003,3.5985,3.6011,3.5994,3.6002,3.6003,3.6005,3.6005,3.5984,3.6017,3.6073,3.6079,3.6008,3.6007,3.6007,0,3.5939,3.5956,3.5975,3.5978,3.5982,3.5992,3.5994,3.5999,3.6006,3.6015,3.602,3.6031,3.6037,3.6047,3.6044,3.6031,3.6071,3.6052,3.6072,3.6072,3.6079,3.6079,3.6137,3.6085,3.6085,3.6085,3.6085,0,3.5978,3.5996,3.599,3.6002,3.6022,3.6015,3.6036,3.6037,3.6042,3.6055,3.6045,3.6058,3.6053,3.6066,3.6065,3.6087,3.609,3.609,3.609,3.6091,3.6091,3.6095,3.6092,3.6087,3.6086,3.6086,3.6086,0,3.6018,3.6015,3.6035,3.6037,3.6038,3.6053,3.6056,3.6068,3.6068,3.6085,3.6088,3.6088,3.6103,3.6101,3.6119,3.6117,3.6145,3.6142,3.6143,3.6142,3.6162,3.616,3.6224,3.6233,3.6175,3.6176,3.6176,0,3.6043,3.6056,3.606,3.6068,3.6071,3.6083,3.6091,3.6086,3.6094,3.6103,3.6115,3.6129,3.614,3.6166,3.6168,3.6182,3.6178,3.62,3.618,3.6182,3.6179,3.6178,3.618,3.6203,3.6204,3.6205,3.6205,0,3.6087,3.6085,3.6095,3.6106,3.6115,3.6123,3.6131,3.6138,3.6134,3.6145,3.616,3.6169,3.6187,3.6202,3.6215,3.622,3.6212,3.6212,3.6217,3.6218,3.6218,3.6219,3.6153,3.621,3.6209,3.6209,3.6209,3.6208,3.612,3.6132,3.6137,3.6149,3.6155,3.6162,3.6174,3.6176,3.6188,3.6201,3.6199,3.6216,3.6225,3.6242,3.6248,3.6263,3.6255,3.6263,3.6265,3.6267,3.6269,3.6217,3.6266,3.6266,3.6266,3.6265,3.6265,0,3.6164,3.6167,3.6179,3.619,3.62,3.6192,3.6201,3.6211,3.6226,3.6234,3.6245,3.6264,3.628,3.6284,3.6299,3.6311,3.6308,3.6315,3.6313,3.6315,3.6275,3.6269,3.6317,3.6317,3.6317,3.6317,3.6317,3.6317,3.6188,3.6208,3.6207,3.6231,3.6234,3.6251,3.6257,3.6265,3.6271,3.6292,3.6304,3.6307,3.6315,3.6331,3.6345,3.6346,3.6352,3.6361,3.6361,3.6323,3.6318,3.6313,3.6307,3.6362,3.6362,3.6399,3.64,3.64]}]]